Flag for U.S.A. Weather past 2 weeks in Boca Raton, Florida, U.S.A.

Now
75 °F

Sunny.


Feels Like: 77 °F
Forecast: 58 / 76 °F
Wind: 9 mph from Northwest

Location: Boca Raton Airport

Current Time: Jan 30, 2015 at 3:49:21 PM

Latest Report: Jan 30, 2015 at 2:55 PM


Visibility: 10 mi

Pressure: 30.12 "Hg

Humidity: 36%

Dew point: 46 °F

Location of Boca RatonLocation

Historic Weather in Boca Raton — Graph

°F

Boca Raton temperature yesterday

Maximum temperature yesterday: 72 °F (at 12:50 PM)
Minimum temperature yesterday: 63 °F (at 7:53 PM)
Average temperature yesterday: 66 °F

Past Weeks' High & Low Weather Summary

 TemperatureHumidityPressure
High79 °F (Jan 21, 11:55 AM)100% (Jan 15, 8:47 PM)30.29 "Hg (Jan 15, 8:47 PM)
Low48 °F (Jan 25, 6:55 AM)24% (Jan 28, 2:55 PM)29.84 "Hg (Jan 26, 1:53 PM)
Average68 °F61%30.08 "Hg
* Reported Jan 15 2:55 PM — Jan 30 2:55 PM, Boca Raton, Weather by CustomWeather, © 2014

Note: Actual official high and low records may vary slightly from our data, if they occured in-between our weather recording intervals... More about our weather records

Advertising

Boca Raton weather history for previous 24 hours

 ConditionsComfort  
Time TempWeatherWind HumidityBarometerVisibility
2:55 PM
Jan 30
75 °FSunny.9 mph36%30.12 "Hg10 mi
1:45 PM73 °FSunny.9 mph44%30.14 "Hg10 mi
12:58 PM73 °FSunny.7 mph44%30.15 "Hg10 mi
11:58 AM72 °FSunny.12 mph50%30.20 "Hg10 mi
10:58 AM70 °FSunny.14 mph50%30.22 "Hg10 mi
9:50 AM64 °FSunny.8 mph68%30.24 "Hg10 mi
8:47 AM63 °FSunny.8 mph68%30.22 "Hg10 mi
7:47 AM57 °FSunny.5 mph77%30.20 "Hg10 mi
6:47 AM55 °FClear.5 mph82%30.19 "Hg10 mi
10:53 PM
Jan 29
63 °FPassing clouds.5 mph68%30.23 "Hg10 mi
9:53 PM63 °FPassing clouds.No wind68%30.23 "Hg10 mi
8:53 PM64 °FPassing clouds.5 mph60%30.23 "Hg10 mi
7:53 PM63 °FPassing clouds.3 mph59%30.23 "Hg10 mi
6:53 PM66 °FPassing clouds.3 mph52%30.22 "Hg10 mi
4:53 PM68 °FPartly sunny.8 mph53%30.23 "Hg10 mi
3:53 PM68 °FPartly sunny.9 mph53%30.22 "Hg10 mi
Weather by CustomWeather, © 2014

See weather overviewHow to use our weather pages